Location: *
(46.3500°N, 10.9000°E)
Time: 00:05:26
(UTC+00:00)

Vanguard 2 - Pass Details

Date: 19 April 2021
Orbit: 552 x 2938 km, 32.9° (Epoch: 12 May)

Event Time Altitude Azimuth Distance (km) Brightness Sun altitude
Rises 14:11:16 0° 253° (WSW) 6,168 13.0 39.1°
Reaches altitude 10° 14:16:12 10° 247° (WSW) 4,811 12.9 38.3°
Maximum altitude 14:27:14 37° 188° (S) 2,318 10.8 36.6°
Drops below altitude 10° 14:34:20 10° 123° (ESE) 3,079 10.4 35.5°
Sets 14:36:48 0° 115° (ESE) 3,776 10.7 35.1°
